Change the Weather History Date:

Thursday, April 24, 2014

  Actual Average Record
Temperature  
Mean Temperature 45 °F -  
Max Temperature 62 °F 64 °F 87 °F (1973)
Min Temperature 28 °F 43 °F 24 °F (1989)
Degree Days  
Heating Degree Days 20    
Moisture  
Dew Point 19 °F    
Average Humidity 35    
Maximum Humidity 69    
Minimum Humidity 16    
Precipitation  
Precipitation 0.00 in - - ()
Sea Level Pressure  
Sea Level Pressure 29.94 in    
Wind  
Wind Speed 10 mph (NW)    
Max Wind Speed 29 mph    
Max Gust Speed 37 mph    
Visibility 10 miles    
Events      
Averages and records for this station are not official NWS values.
T = Trace of Precipitation, MM = Missing Value Source: NWS Daily Summary

Daily Weather History Graph

Daily Weather History Graph

Search for Another Location

Airport or City:

Trip Planner

Search our weather history database for the weather conditions in past years. The results will help you decide how hot, cold, wet, or windy it might be!

Date:

Astronomy

Apr. 24, 2014 Rise Set
Actual Time 6:06 AM EDT 7:44 PM EDT
Civil Twilight 5:37 AM EDT 8:13 PM EDT
Nautical Twilight 5:03 AM EDT 8:48 PM EDT
Astronomical Twilight 4:26 AM EDT 9:25 PM EDT
Moon 3:15 AM EDT (4/24) 2:57 PM EDT (4/24)
Length of Visible Light 14h 35m
Length of Day
13h 38m
Waning Crescent, 24% of the Moon is Illuminated
Apr 24
Waning Crescent
Apr 29
New
May 6
First Quarter
May 14
Full
May 21
Last Quarter

Hourly Weather History & Observations

Time (EDT) Temp. Windchill Dew Point Humidity Pressure Visibility Wind Dir Wind Speed Gust Speed Precip Events Conditions
12:15 AM 44.6 °F 40.2 °F 24.8 °F 46% 29.88 in 10.0 mi NW 8.1 mph - N/A   Clear
12:35 AM 44.6 °F 40.7 °F 26.6 °F 49% 29.89 in 10.0 mi NW 6.9 mph - N/A   Clear
12:55 AM 42.8 °F 39.3 °F 26.6 °F 53% 29.89 in 10.0 mi WNW 5.8 mph - N/A   Clear
1:15 AM 42.8 °F 39.3 °F 24.8 °F 49% 29.89 in 10.0 mi WNW 5.8 mph - N/A   Clear
1:35 AM 42.8 °F 40.1 °F 24.8 °F 49% 29.89 in 10.0 mi NW 4.6 mph - N/A   Clear
1:55 AM 42.8 °F 40.1 °F 24.8 °F 49% 29.88 in 10.0 mi NW 4.6 mph - N/A   Clear
2:15 AM 41.0 °F 38.0 °F 24.8 °F 53% 29.88 in 10.0 mi NW 4.6 mph - N/A   Clear
2:35 AM 41.0 °F 39.0 °F 24.8 °F 53% 29.88 in 10.0 mi NW 3.5 mph - N/A   Clear
2:55 AM 41.0 °F 38.0 °F 26.6 °F 57% 29.88 in 10.0 mi NW 4.6 mph - N/A   Clear
3:15 AM 39.2 °F - 26.6 °F 61% 29.88 in 10.0 mi Calm Calm - N/A   Clear
3:35 AM 39.2 °F - 26.6 °F 61% 29.88 in 10.0 mi Calm Calm - N/A   Clear
3:55 AM 39.2 °F 37.0 °F 24.8 °F 56% 29.89 in 10.0 mi WNW 3.5 mph - N/A   Clear
4:15 AM 39.2 °F 35.0 °F 24.8 °F 56% 29.89 in 10.0 mi WNW 5.8 mph - N/A   Clear
4:35 AM 39.2 °F 35.0 °F 24.8 °F 56% 29.90 in 10.0 mi WNW 5.8 mph - N/A   Clear
4:55 AM 39.2 °F 34.2 °F 26.6 °F 61% 29.90 in 10.0 mi WNW 6.9 mph - N/A   Clear
5:15 AM 41.0 °F 37.1 °F 26.6 °F 57% 29.90 in 10.0 mi WNW 5.8 mph - N/A   Clear
5:35 AM 39.2 °F 34.2 °F 26.6 °F 61% 29.91 in 10.0 mi WNW 6.9 mph - N/A   Clear
5:55 AM 39.2 °F 34.2 °F 26.6 °F 61% 29.92 in 10.0 mi WNW 6.9 mph - N/A   Clear
6:15 AM 39.2 °F 35.9 °F 24.8 °F 56% 29.93 in 10.0 mi West 4.6 mph - N/A   Clear
6:35 AM 39.2 °F 34.2 °F 24.8 °F 56% 29.95 in 10.0 mi West 6.9 mph - N/A   Clear
6:55 AM 39.2 °F 33.6 °F 24.8 °F 56% 29.95 in 10.0 mi West 8.1 mph - N/A   Clear
7:15 AM 42.8 °F 38.0 °F 24.8 °F 49% 29.96 in 10.0 mi West 8.1 mph - N/A   Clear
7:35 AM 42.8 °F 37.5 °F 23.0 °F 46% 29.96 in 10.0 mi WNW 9.2 mph - N/A   Clear
7:55 AM 44.6 °F 38.4 °F 21.2 °F 39% 29.96 in 10.0 mi WNW 12.7 mph - N/A   Clear
8:15 AM 44.6 °F 37.8 °F 19.4 °F 37% 29.97 in 10.0 mi WNW 15.0 mph 19.6 mph N/A   Clear
8:35 AM 42.8 °F 35.4 °F 19.4 °F 39% 29.98 in 10.0 mi NW 15.0 mph 21.9 mph N/A   Clear
8:55 AM 42.8 °F 35.1 °F 19.4 °F 39% 29.98 in 10.0 mi WNW 16.1 mph 25.3 mph N/A   Clear
9:15 AM 46.4 °F 39.8 °F 17.6 °F 32% 29.97 in 10.0 mi NW 16.1 mph 28.8 mph N/A   Clear
9:35 AM 42.8 °F 36.2 °F 19.4 °F 39% 29.97 in 10.0 mi NW 12.7 mph 25.3 mph N/A   Clear
9:55 AM 37.4 °F 28.2 °F 19.4 °F 48% 29.97 in 10.0 mi WNW 16.1 mph 26.5 mph N/A   Clear
10:15 AM 28.4 °F 15.1 °F 19.4 °F 69% 29.97 in 10.0 mi NW 20.7 mph 27.6 mph N/A   Clear
10:35 AM 42.8 °F 34.5 °F 17.6 °F 36% 29.97 in 10.0 mi NNW 18.4 mph 28.8 mph N/A   Clear
10:55 AM 51.8 °F - 17.6 °F 26% 29.97 in 10.0 mi WNW 23.0 mph 31.1 mph N/A   Clear
11:15 AM 51.8 °F - 15.8 °F 24% 29.97 in 10.0 mi NW 16.1 mph 27.6 mph N/A   Clear
11:35 AM 53.6 °F - 17.6 °F 24% 29.97 in 10.0 mi NW 24.2 mph 33.4 mph N/A   Clear
11:55 AM 55.4 °F - 17.6 °F 23% 29.96 in 10.0 mi WNW 24.2 mph 31.1 mph N/A   Clear
12:15 PM 55.4 °F - 17.6 °F 23% 29.96 in 5.0 mi WNW 20.7 mph 33.4 mph N/A   Clear
12:35 PM 55.4 °F - 17.6 °F 23% 29.95 in 10.0 mi NW 27.6 mph 34.5 mph N/A   Partly Cloudy
12:55 PM 55.4 °F - 17.6 °F 23% 29.95 in 8.0 mi WNW 23.0 mph 33.4 mph N/A   Partly Cloudy
1:15 PM 57.2 °F - 17.6 °F 21% 29.94 in 5.0 mi WNW 21.9 mph 33.4 mph N/A   Clear
1:35 PM 57.2 °F - 17.6 °F 21% 29.93 in 10.0 mi NW 19.6 mph 32.2 mph N/A   Clear
1:55 PM 57.2 °F - 17.6 °F 21% 29.92 in 10.0 mi WNW 21.9 mph 29.9 mph N/A   Clear
2:15 PM 59.0 °F - 17.6 °F 20% 29.92 in 10.0 mi WNW 24.2 mph 31.1 mph N/A   Clear
2:35 PM 59.0 °F - 17.6 °F 20% 29.92 in 10.0 mi WNW 23.0 mph 36.8 mph N/A   Clear
2:55 PM 60.8 °F - 17.6 °F 19% 29.91 in 10.0 mi WNW 28.8 mph 33.4 mph N/A   Clear
3:15 PM 60.8 °F - 17.6 °F 19% 29.92 in 10.0 mi WNW 19.6 mph 31.1 mph N/A   Clear
3:35 PM 60.8 °F - 17.6 °F 19% 29.92 in 10.0 mi WNW 17.3 mph 26.5 mph N/A   Clear
3:55 PM 60.8 °F - 15.8 °F 17% 29.92 in 10.0 mi NW 15.0 mph 31.1 mph N/A   Clear
4:15 PM 60.8 °F - 15.8 °F 17% 29.91 in 10.0 mi NNW 16.1 mph 28.8 mph N/A   Clear
4:35 PM 62.6 °F - 17.6 °F 18% 29.91 in 10.0 mi NW 16.1 mph 26.5 mph N/A   Clear
4:55 PM 57.2 °F - 15.8 °F 20% 29.91 in 10.0 mi NW 15.0 mph 26.5 mph N/A   Clear
5:15 PM 57.2 °F - 15.8 °F 20% 29.91 in 10.0 mi NW 18.4 mph 24.2 mph N/A   Clear
5:35 PM 60.8 °F - 14.0 °F 16% 29.92 in 10.0 mi NNW 16.1 mph 23.0 mph N/A   Clear
5:55 PM 59.0 °F - 14.0 °F 17% 29.92 in 10.0 mi NW 12.7 mph 19.6 mph N/A   Clear
6:15 PM 59.0 °F - 14.0 °F 17% 29.93 in 10.0 mi NW 12.7 mph 23.0 mph N/A   Clear
6:35 PM 57.2 °F - 14.0 °F 18% 29.93 in 10.0 mi NW 10.4 mph 19.6 mph N/A   Clear
6:55 PM 57.2 °F - 15.8 °F 20% 29.94 in 10.0 mi WNW 17.3 mph 25.3 mph N/A   Clear
7:15 PM 59.0 °F - 15.8 °F 19% 29.94 in 10.0 mi NW 12.7 mph 18.4 mph N/A   Clear
7:35 PM 57.2 °F - 15.8 °F 20% 29.95 in 10.0 mi NW 6.9 mph 17.3 mph N/A   Clear
7:55 PM 57.2 °F - 15.8 °F 20% 29.97 in 10.0 mi NW 5.8 mph - N/A   Clear
8:15 PM 55.4 °F - 15.8 °F 21% 29.98 in 10.0 mi NW 4.6 mph - N/A   Clear
8:35 PM 55.4 °F - 15.8 °F 21% 29.99 in 10.0 mi NW 5.8 mph - N/A   Clear
8:55 PM 53.6 °F - 15.8 °F 22% 29.99 in 10.0 mi NNW 4.6 mph - N/A   Clear
9:15 PM 53.6 °F - 15.8 °F 22% 30.01 in 10.0 mi Calm Calm - N/A   Clear
9:35 PM 51.8 °F - 14.0 °F 22% 30.00 in 10.0 mi NW 4.6 mph - N/A   Clear
9:55 PM 51.8 °F - 14.0 °F 22% 30.01 in 10.0 mi Calm Calm - N/A   Clear
10:15 PM 50.0 °F - 14.0 °F 24% 30.01 in 10.0 mi NW 4.6 mph - N/A   Clear
10:35 PM 50.0 °F - 14.0 °F 24% 30.02 in 10.0 mi Calm Calm - N/A   Clear
10:55 PM 46.4 °F - 17.6 °F 32% 30.02 in 10.0 mi Calm Calm - N/A   Clear
11:15 PM 44.6 °F - 17.6 °F 34% 30.02 in 10.0 mi Calm Calm - N/A   Clear
11:35 PM 48.2 °F - 15.8 °F 27% 30.02 in 10.0 mi Calm Calm - N/A   Clear
11:55 PM 46.4 °F 45.2 °F 14.0 °F 27% 30.02 in 10.0 mi NW 3.5 mph - N/A   Clear